Change the Weather History Date:

Wednesday, September 18, 2013

  Actual Average Record
Temperature  
Mean Temperature 71 °F 75 °F  
Max Temperature 81 °F 85 °F 95 °F (2005)
Min Temperature 61 °F 66 °F 54 °F (2001)
Degree Days  
Heating Degree Days 0 0  
Month to date heating degree days 0 0  
Since 1 July heating degree days 0 0  
Cooling Degree Days 6 11  
Month to date cooling degree days 271 227  
Year to date cooling degree days 1999 2045  
Growing Degree Days 20 (Base 50)    
Moisture  
Dew Point 55 °F    
Average Humidity 62    
Maximum Humidity 84    
Minimum Humidity 39    
Precipitation  
Precipitation 0.00 in 0.14 in 0.58 in (2002)
Month to date precipitation 0.81 2.57  
Year to date precipitation 43.70 34.42  
Sea Level Pressure  
Sea Level Pressure 30.22 in    
Wind  
Wind Speed 3 mph (NE)    
Max Wind Speed 10 mph    
Max Gust Speed 15 mph    
Visibility 10 miles    
Events      
T = Trace of Precipitation, MM = Missing Value Source: NWS Daily Summary

Daily Weather History Graph

Daily Weather History Graph

Search for Another Location

Airport or City:

Trip Planner

Search our weather history database for the weather conditions in past years. The results will help you decide how hot, cold, wet, or windy it might be!

Date:

Astronomy

Sep. 18, 2013 Rise Set
Actual Time 7:09 AM EDT 7:25 PM EDT
Civil Twilight 6:44 AM EDT 7:50 PM EDT
Nautical Twilight 6:15 AM EDT 8:20 PM EDT
Astronomical Twilight 5:45 AM EDT 8:49 PM EDT
Moon 6:49 PM EDT (9/18) 6:11 AM EDT (9/18)
Length of Visible Light 13h 06m
Length of Day
12h 16m
Waxing Gibbous, 99% of the Moon is Illuminated
Sep 18
Waxing Gibbous
Sep 19
Full
Sep 26
Last Quarter
Oct 4
New
Oct 11
First Quarter

Hourly Weather History & Observations

Time (EDT) Temp. Heat Index Dew Point Humidity Pressure Visibility Wind Dir Wind Speed Gust Speed Precip Events Conditions
12:53 AM 69.1 °F - 54.0 °F 58% 30.23 in 10.0 mi ENE 3.5 mph - N/A   Clear
1:53 AM 66.9 °F - 55.0 °F 66% 30.23 in 10.0 mi ENE 4.6 mph - N/A   Clear
2:53 AM 66.0 °F - 55.9 °F 70% 30.23 in 10.0 mi ENE 4.6 mph - N/A   Clear
3:53 AM 64.9 °F - 55.9 °F 73% 30.23 in 10.0 mi ENE 3.5 mph - N/A   Clear
4:53 AM 63.0 °F - 55.9 °F 78% 30.23 in 10.0 mi Calm Calm - N/A   Clear
5:53 AM 61.0 °F - 55.0 °F 81% 30.25 in 10.0 mi ENE 3.5 mph - N/A   Clear
6:53 AM 61.0 °F - 54.0 °F 78% 30.25 in 10.0 mi ENE 3.5 mph - N/A   Clear
7:53 AM 61.0 °F - 54.0 °F 78% 30.27 in 10.0 mi Calm Calm - N/A   Partly Cloudy
8:53 AM 63.0 °F - 53.1 °F 70% 30.27 in 10.0 mi East 4.6 mph - N/A   Partly Cloudy
9:53 AM 66.0 °F - 52.0 °F 60% 30.28 in 10.0 mi Variable 4.6 mph - N/A   Mostly Cloudy
10:53 AM 71.1 °F - 53.1 °F 53% 30.27 in 10.0 mi Variable 5.8 mph - N/A   Clear
11:53 AM 73.0 °F - 51.1 °F 46% 30.26 in 10.0 mi ENE 6.9 mph - N/A   Clear
12:53 PM 75.0 °F - 52.0 °F 44% 30.25 in 10.0 mi Variable 5.8 mph - N/A   Clear
1:53 PM 77.0 °F - 53.1 °F 43% 30.23 in 10.0 mi Variable 3.5 mph - N/A   Clear
2:53 PM 80.1 °F 80.0 °F 54.0 °F 40% 30.20 in 10.0 mi Variable 3.5 mph - N/A   Clear
3:53 PM 79.0 °F - 53.1 °F 40% 30.18 in 10.0 mi NNW 5.8 mph - N/A   Clear
4:53 PM 80.1 °F 80.0 °F 54.0 °F 40% 30.17 in 10.0 mi NW 4.6 mph - N/A   Clear
5:53 PM 79.0 °F - 55.0 °F 44% 30.16 in 10.0 mi Calm Calm - N/A   Clear
6:53 PM 77.0 °F - 55.9 °F 48% 30.17 in 10.0 mi Calm Calm - N/A   Clear
7:53 PM 72.0 °F - 59.0 °F 64% 30.16 in 10.0 mi Calm Calm - N/A   Clear
8:53 PM 69.1 °F - 60.1 °F 73% 30.18 in 10.0 mi Calm Calm - N/A   Clear
9:53 PM 66.9 °F - 60.1 °F 79% 30.19 in 10.0 mi Calm Calm - N/A   Clear
10:53 PM 66.0 °F - 60.1 °F 81% 30.19 in 10.0 mi Calm Calm - N/A   Clear
11:53 PM 64.9 °F - 59.0 °F 81% 30.19 in 10.0 mi Calm Calm - N/A   Clear